[[{"header":{"parameterUnit":"m.s-1","parameterCategory":1,"la1":30.2991,"la2":30.254,"lo1":-89.0895,"lo2":-89.0444,"dy":0.0017,"dx":0.0017,"nx":28,"ny":28,"refTime":"2025-02-08T09:00:00:Z","depth":0,"parameterNumber":2,"parameterNumberName":"U-component_of_WINDS"},"data":[0,0,0,0,0,0,0,0,0,0,0,0,0,0,0,0,0,0,0,0,0,0,0,0,0,0,0,0,0,0,0,0,0,0,0,0,0,0,0,0,0,0,0,0,0,0,0,0,0,0,0,0,0,0,0,0,0,0,-0.3046,-0.3046,0,-0.3048,-0.3048,-0.3048,-0.3054,-0.3054,-0.3054,-0.3054,-0.3056,-0.3056,-0.3056,0,0,0,0,0,0,0,0,0,0,0,0,0,-0.3047,-0.3046,-0.3046,-0.3046,-0.3046,-0.3048,-0.3048,-0.3048,-0.3054,-0.3054,-0.3054,-0.3054,-0.3056,-0.3056,-0.3056,0,0,0,0,0,0,0,0,0,0,0,0,0,-0.3047,-0.3046,-0.3046,-0.3049,-0.3049,-0.3048,-0.3048,-0.3048,-0.3054,-0.3054,-0.3054,-0.3055,-0.3056,-0.3056,-0.3056,-0.3051,0,0,-0.3056,-0.3055,0,0,0,0,0,0,0,0,-0.3047,-0.3047,-0.3048,-0.3049,-0.3049,-0.3051,-0.3049,-0.3049,-0.3054,-0.3052,-0.3054,-0.3055,-0.3054,-0.3054,-0.3054,-0.3051,-0.3051,-0.3056,-0.3055,-0.3055,-0.3055,0,0,0,0,0,0,0,-0.3047,-0.3047,-0.3046,-0.3048,-0.3049,-0.305,-0.3051,-0.3049,-0.3052,-0.3052,-0.3053,-0.3053,-0.3054,-0.3054,-0.3054,-0.3051,-0.3056,-0.3055,-0.3055,-0.3055,-0.3045,-0.3045,0,0,0,0,0,0,-0.3047,-0.3047,-0.3046,-0.3047,-0.3049,-0.305,-0.3051,-0.305,-0.3052,-0.3053,-0.3053,-0.3053,-0.3054,-0.3054,-0.3054,-0.3049,-0.3055,-0.3055,-0.3055,-0.3045,-0.3045,-0.3044,0,0,0,0,0,0,-0.3047,-0.3046,-0.3046,-0.3047,-0.3047,-0.305,-0.3049,-0.305,-0.305,-0.3052,-0.3053,-0.3052,-0.3055,-0.3054,-0.3052,-0.3049,-0.3055,-0.3055,-0.3045,-0.3045,-0.3045,-0.3038,0,0,0,0,0,0,-0.3047,-0.3046,-0.3045,-0.3047,-0.3047,-0.3044,-0.3049,-0.305,-0.305,-0.305,-0.3052,-0.3052,-0.3055,-0.3052,-0.3052,-0.3049,-0.3055,-0.3045,-0.3045,-0.3045,-0.3038,-0.3037,-0.3036,0,0,0,0,0,-0.3047,-0.3042,-0.3044,-0.3044,-0.3045,-0.3044,-0.3044,-0.3047,-0.3049,-0.3048,-0.3049,-0.3052,-0.3049,-0.3052,-0.3052,-0.3049,-0.3046,-0.3045,-0.3045,-0.3039,-0.3037,-0.3036,0,0,0,0,0,0,-0.3039,-0.3043,-0.3045,-0.3041,-0.3042,-0.3045,-0.3042,-0.3045,-0.3045,-0.3046,-0.3049,-0.305,-0.3046,-0.3047,-0.305,-0.3044,-0.3048,-0.3048,-0.3044,-0.3042,-0.3042,-0.3041,-0.3055,0,0,0,0,0,-0.3038,-0.3037,-0.3039,-0.3036,-0.3036,-0.3039,-0.3039,-0.3041,-0.3042,-0.3042,-0.3044,-0.3045,-0.3044,-0.3043,-0.3043,-0.3039,-0.3039,-0.3037,-0.3036,-0.3035,-0.3034,-0.3032,-0.3031,-0.3043,-0.3043,-0.3043,0,0,-0.3033,-0.3035,-0.3034,-0.3035,-0.3036,-0.3034,-0.304,-0.3038,-0.3037,-0.3042,-0.304,-0.3041,-0.3042,-0.3039,-0.3037,-0.3039,-0.3031,-0.3034,-0.3034,-0.3033,-0.3032,-0.303,-0.3029,-0.3043,-0.3043,-0.3043,0,0,-0.3025,-0.3026,-0.3024,-0.3025,-0.3026,-0.3028,-0.3028,-0.303,-0.3031,-0.3029,-0.3033,-0.3032,-0.303,-0.3031,-0.3031,-0.3024,-0.3026,-0.3024,-0.3019,-0.3017,-0.3016,-0.3015,-0.3012,-0.3011,-0.3023,-0.3023,-0.3023,0,-0.302,-0.3018,-0.3022,-0.302,-0.302,-0.3025,-0.3023,-0.3023,-0.3024,-0.3024,-0.3027,-0.3026,-0.3027,-0.3024,-0.3022,-0.3022,-0.3021,-0.3023,-0.3016,-0.3015,-0.3014,-0.3011,-0.301,-0.3023,-0.3023,-0.3023,-0.3023,0,-0.3011,-0.301,-0.3008,-0.3009,-0.3009,-0.3007,-0.301,-0.301,-0.3012,-0.3014,-0.3012,-0.3014,-0.3014,-0.3013,-0.3016,-0.3011,-0.3012,-0.3015,-0.3019,-0.3012,-0.301,-0.3009,-0.3022,-0.3022,-0.3022,-0.3022,0,0,-0.2998,-0.3002,-0.3001,-0.3002,-0.3004,-0.3003,-0.3001,-0.3002,-0.3001,-0.3002,-0.3,-0.3,-0.3002,-0.3003,-0.3005,-0.3003,-0.2998,-0.3007,-0.3007,-0.3005,-0.2992,-0.299,-0.2989,-0.3,-0.3,-0.2999,-0.2992,0,-0.299,-0.2987,-0.2991,-0.2987,-0.2986,-0.2991,-0.299,-0.2991,-0.2993,-0.2992,-0.2995,-0.2994,-0.2998,-0.2998,-0.2997,-0.2999,-0.2995,-0.2999,-0.2998,-0.2998,-0.2997,-0.2987,-0.2985,-0.2978,-0.2991,-0.2991,-0.2991,0,-0.298,-0.2981,-0.2977,-0.298,-0.298,-0.2978,-0.2979,-0.2978,-0.298,-0.2982,-0.2982,-0.2985,-0.2984,-0.2988,-0.2986,-0.2989,-0.2989,-0.299,-0.299,-0.2989,-0.2994,-0.2986,-0.2975,-0.2974,-0.299,-0.299,-0.299,0,-0.2971,-0.2971,-0.2968,-0.2969,-0.2972,-0.2971,-0.2972,-0.2974,-0.2974,-0.2975,-0.2975,-0.2976,-0.2976,-0.2976,-0.2979,-0.2982,-0.2977,-0.2981,-0.2978,-0.2978,-0.2976,-0.2976,-0.2965,-0.2977,-0.2977,-0.2977,-0.2977,0,-0.2961,-0.2958,-0.2964,-0.2963,-0.296,-0.2964,-0.2962,-0.2964,-0.2965,-0.2964,-0.2969,-0.2968,-0.2973,-0.2972,-0.2975,-0.2973,-0.2973,-0.2974,-0.2975,-0.2973,-0.2973,-0.2973,-0.2973,-0.2976,-0.2977,-0.2977,-0.2977,0,-0.2949,-0.2953,-0.2951,-0.2955,-0.2955,-0.2953,-0.2956,-0.2955,-0.2958,-0.2957,-0.2957,-0.296,-0.296,-0.2964,-0.2964,-0.2966,-0.2963,-0.2964,-0.2962,-0.2962,-0.2959,-0.2959,-0.2946,-0.2945,-0.2958,-0.2958,-0.2958,0,-0.2943,-0.2941,-0.2945,-0.2944,-0.2946,-0.2945,-0.2945,-0.295,-0.295,-0.2952,-0.2951,-0.2951,-0.2951,-0.2951,-0.2953,-0.2954,-0.2955,-0.2951,-0.2955,-0.2954,-0.2955,-0.2955,-0.2955,-0.295,-0.295,-0.295,-0.2949,0,-0.2931,-0.2933,-0.2933,-0.2934,-0.2934,-0.2935,-0.2936,-0.2936,-0.2941,-0.294,-0.294,-0.2941,-0.2942,-0.2942,-0.2943,-0.2944,-0.2948,-0.2948,-0.2947,-0.2946,-0.2944,-0.2945,-0.2959,-0.2948,-0.2948,-0.2949,-0.2949,-0.2949,-0.2921,-0.292,-0.2922,-0.2922,-0.2924,-0.2925,-0.2924,-0.2927,-0.2927,-0.2928,-0.2931,-0.293,-0.2932,-0.2934,-0.2936,-0.2935,-0.2937,-0.2936,-0.2936,-0.2935,-0.2935,-0.2945,-0.2935,-0.2936,-0.2936,-0.2936,-0.2936,0,-0.2909,-0.2911,-0.2911,-0.2913,-0.2913,-0.2917,-0.2918,-0.2918,-0.2918,-0.292,-0.292,-0.292,-0.2921,-0.2924,-0.2924,-0.2924,-0.2925,-0.2924,-0.2923,-0.2924,-0.2933,-0.2933,-0.2922,-0.2922,-0.2922,-0.2922,-0.2922,-0.2922,-0.2903,-0.2901,-0.2903,-0.2902,-0.2904,-0.2904,-0.2904,-0.2906,-0.2907,-0.2907,-0.2907,-0.291,-0.2912,-0.2913,-0.2914,-0.2915,-0.2915,-0.2912,-0.2914,-0.2922,-0.2923,-0.2924,-0.2925,-0.2912,-0.2912,-0.2905,-0.2905,-0.2905]},{"header":{"parameterUnit":"m.s-1","parameterCategory":1,"la1":30.2991,"la2":30.254,"lo1":-89.0895,"lo2":-89.0444,"dy":0.0017,"dx":0.0017,"nx":28,"ny":28,"refTime":"2025-02-08T09:00:00:Z","depth":0,"parameterNumber":3,"parameterNumberName":"V-component_of_WINDS"},"data":[0,0,0,0,0,0,0,0,0,0,0,0,0,0,0,0,0,0,0,0,0,0,0,0,0,0,0,0,0,0,0,0,0,0,0,0,0,0,0,0,0,0,0,0,0,0,0,0,0,0,0,0,0,0,0,0,0,0,4.3928,4.3929,0,4.4009,4.401,4.4011,4.4009,4.4008,4.4007,4.4006,4.4085,4.4088,4.4091,0,0,0,0,0,0,0,0,0,0,0,0,0,4.3764,4.3767,4.3928,4.3929,4.393,4.4009,4.401,4.4011,4.401,4.4008,4.4007,4.4006,4.4084,4.4087,4.4091,0,0,0,0,0,0,0,0,0,0,0,0,0,4.3839,4.3768,4.3927,4.3939,4.394,4.4009,4.401,4.4012,4.401,4.4008,4.4007,4.4005,4.4082,4.4087,4.4091,4.4153,0,0,4.4106,4.4108,0,0,0,0,0,0,0,0,4.3835,4.3845,4.3936,4.3938,4.394,4.3998,4.3981,4.4059,4.401,4.3983,4.4006,4.4004,4.4057,4.4063,4.4082,4.4156,4.416,4.4106,4.4109,4.4111,4.4112,0,0,0,0,0,0,0,4.383,4.3842,4.396,4.3937,4.394,4.3937,4.3946,4.3996,4.4028,4.3986,4.3986,4.3996,4.4057,4.4078,4.4084,4.4161,4.4106,4.411,4.4113,4.4115,4.4289,4.429,0,0,0,0,0,0,4.3823,4.3837,4.3957,4.3962,4.3883,4.3942,4.3952,4.3981,4.4027,4.4033,4.3997,4.3995,4.407,4.4078,4.4087,4.4162,4.4111,4.4115,4.4118,4.4287,4.4289,4.4291,0,0,0,0,0,0,4.382,4.3834,4.3954,4.39,4.3915,4.3946,4.3979,4.3983,4.4003,4.4036,4.4041,4.4012,4.4069,4.408,4.4137,4.4164,4.4117,4.4122,4.4285,4.4287,4.429,4.4312,0,0,0,0,0,0,4.3815,4.3833,4.3858,4.3901,4.3918,4.4004,4.3981,4.3986,4.4012,4.4011,4.4052,4.4057,4.4069,4.413,4.4141,4.417,4.4125,4.4282,4.4286,4.4289,4.4309,4.4315,4.432,0,0,0,0,0,4.3809,4.386,4.3859,4.3874,4.395,4.4006,4.4016,4.403,4.4014,4.4039,4.406,4.4056,4.4159,4.4135,4.4148,4.4179,4.4281,4.4285,4.4289,4.4306,4.4314,4.432,0,0,0,0,0,0,4.3818,4.3865,4.3865,4.3932,4.3965,4.4006,4.4037,4.4038,4.4075,4.4072,4.4086,4.4096,4.4152,4.4171,4.4144,4.424,4.4218,4.4224,4.4226,4.4234,4.424,4.4234,4.4129,0,0,0,0,0,4.3827,4.3871,4.3909,4.3964,4.3981,4.4006,4.4031,4.4039,4.4073,4.4087,4.4112,4.4144,4.4184,4.4209,4.4248,4.4311,4.4319,4.4338,4.4344,4.4348,4.4354,4.4389,4.4398,4.4305,4.4305,4.4304,0,0,4.3848,4.3879,4.3905,4.3966,4.3993,4.4036,4.4018,4.4064,4.4095,4.4093,4.4149,4.4168,4.4204,4.4265,4.4292,4.4282,4.4382,4.4354,4.4357,4.4361,4.4394,4.4403,4.4411,4.4307,4.4307,4.4306,0,0,4.3907,4.3935,4.3984,4.4012,4.4053,4.4069,4.4081,4.4121,4.4135,4.4191,4.4191,4.4226,4.4295,4.4321,4.4343,4.4411,4.4408,4.4422,4.4453,4.4486,4.4494,4.45,4.4525,4.4533,4.4428,4.4428,4.4428,0,4.3927,4.3993,4.4008,4.4055,4.4082,4.4083,4.4132,4.4157,4.4207,4.4225,4.4212,4.4298,4.4322,4.4389,4.4405,4.4423,4.4436,4.4418,4.4492,4.4498,4.4505,4.4528,4.4537,4.4429,4.4429,4.4429,4.4429,0,4.4015,4.4061,4.4095,4.4147,4.4176,4.4223,4.4244,4.4272,4.4277,4.4294,4.435,4.438,4.4424,4.444,4.4444,4.4506,4.4499,4.4489,4.4467,4.4515,4.4537,4.4546,4.4432,4.4431,4.4431,4.443,0,0,4.4084,4.4143,4.4155,4.4179,4.4224,4.4258,4.4304,4.4349,4.4373,4.4407,4.4446,4.4503,4.4494,4.4519,4.4526,4.4555,4.4607,4.4541,4.4542,4.4553,4.4677,4.4685,4.4695,4.4605,4.4606,4.4608,4.4674,0,4.4149,4.4234,4.4249,4.4322,4.4364,4.4365,4.4405,4.4436,4.4452,4.4489,4.4506,4.4547,4.4531,4.4547,4.4575,4.4595,4.4632,4.459,4.464,4.4642,4.4633,4.4707,4.4716,4.4777,4.4683,4.4684,4.4685,0,4.4237,4.4275,4.4354,4.4393,4.4411,4.4447,4.4489,4.4524,4.4558,4.4568,4.4595,4.4599,4.4645,4.462,4.4683,4.4654,4.4674,4.4687,4.4689,4.4696,4.4667,4.4716,4.4797,4.4806,4.4699,4.4698,4.4697,0,4.428,4.4351,4.4407,4.4427,4.4474,4.4499,4.4519,4.4552,4.4578,4.4613,4.463,4.4669,4.4691,4.4721,4.4734,4.4714,4.4796,4.4772,4.4805,4.4805,4.4823,4.4822,4.491,4.4835,4.4835,4.4834,4.4834,0,4.4352,4.44,4.4428,4.4462,4.4515,4.453,4.4581,4.4601,4.4629,4.4666,4.4668,4.4702,4.4717,4.4753,4.4763,4.4814,4.4823,4.4832,4.4834,4.4832,4.4831,4.4847,4.4844,4.4837,4.4836,4.4836,4.4835,0,4.441,4.4431,4.4492,4.4532,4.4542,4.458,4.4612,4.4645,4.4661,4.4707,4.4719,4.4743,4.4785,4.4801,4.4852,4.4859,4.4917,4.4915,4.4907,4.4908,4.494,4.4937,4.5042,4.5056,4.4971,4.4971,4.4972,0,4.4456,4.4493,4.4536,4.4562,4.4584,4.4625,4.4652,4.4667,4.4694,4.4735,4.4762,4.4805,4.484,4.4906,4.4927,4.4966,4.4966,4.5,4.4971,4.4969,4.4967,4.4965,4.4969,4.5005,4.5006,4.5007,4.5007,0,4.4534,4.4542,4.4582,4.4625,4.4657,4.4691,4.4724,4.4744,4.4763,4.4794,4.4838,4.4865,4.4917,4.4959,4.4999,4.5017,4.5015,4.5016,4.5026,4.5025,4.5019,4.5023,4.4922,4.5014,4.5013,4.5013,4.5012,4.5012,4.4588,4.4621,4.4657,4.4701,4.4727,4.4758,4.4791,4.4811,4.4849,4.4894,4.4899,4.4946,4.4977,4.5031,4.5051,4.5086,4.5077,4.5091,4.5095,4.5099,4.5101,4.5012,4.5093,4.5093,4.5093,4.5093,4.5093,0,4.4668,4.4691,4.4731,4.4778,4.4811,4.4808,4.4843,4.4872,4.4914,4.4944,4.4979,4.5029,4.5069,4.5092,4.5132,4.5156,4.5156,4.5166,4.5165,4.5169,4.5107,4.5095,4.5165,4.5165,4.5165,4.5165,4.5165,4.5165,4.4713,4.4769,4.4782,4.485,4.4872,4.492,4.4941,4.4968,4.4992,4.5049,4.5083,4.5098,4.5125,4.5167,4.5203,4.5209,4.5223,4.5234,4.5239,4.5181,4.5174,4.5167,4.5156,4.5237,4.5237,4.5299,4.5299,4.53]}]]